Content
SEND FEEDBACK

Daily
Averages
Monthly
Summary
United States of America

GREENFIELD, MASSACHUSETTS


Home > North America > United States > Massachusetts
Elevation: 58 meters     Latitude: 42 37N     Longitude: 072 33W

WEATHER
 
SELECT A DAY
Number of Records: 216,889;   Date Range: 7/1/96 - 11/27/14
 
SHARE

PRINT THIS DATA

[ ← Previous Day ]
WEATHER ALMANAC - 1 AUGUST, 2014
[ Next Day → ]
[ °F ]   °C
Weather ElementAverageHighLow
Temperature20.6 °C27.2 °C (4:52 pm)14.4 °C (9:52 pm)
Dewpoint16.7 °C19.4 °C (6:52 pm)14 °C (12:50 am)
Humidity80.1 %100 % (12:50 am)54 % (11:52 am)
Barometer1022.7 hPa1023.7 hPa (5:52 pm)1021.7 hPa (7:56 am)
Wind Speed6.1 km/h24.1 km/h (1:52 pm)
Wind Gust35.2 km/h (1:52 pm)
Weather ElementAverage
Visibility12.9 km
Wind DirectionE (95.3 °)

Weather ElementTotal
Precipitation0.25 mm
Cooling Degree Days2.5 (Base 18.3)
Growing Degree Days10.8 (Base 10)
Averaged from 34 records on 1 August, 2014
WEATHER CONDITIONS BREAKOUT
WIND DIRECTION BREAKOUT
WEATHER BY HOUR - 1 AUGUST, 2014
[ °F ]   °C
Local TimeTemperatureDewpointHumidityBarometerVisibilityWind DirectionWind SpeedGust SpeedPrecipitationEventsConditions
12:00 AM16.1 °C15.6 °C97 %1021.7 hPa4 kmCalmClear
1:40 AM15 °C14.4 °C96 %1021.7 hPa1.9 kmCalmClear
1:44 AM15 °C14.4 °C96 %1021.7 hPa1.3 kmCalmClear
1:48 AM15 °C14 °C94 %1021.7 hPa1.9 kmCalmClear
1:50 AM15 °C14 °C94 %1021.7 hPa3.2 kmCalmClear
1:52 AM15 °C14.4 °C96 %1021.7 hPa4 kmCalmClear
2:23 AM14.4 °C14.4 °C100 %1022 hPa6.4 kmCalmClear
2:52 AM15 °C14.4 °C96 %1021.7 hPa11.3 kmCalmMostly Cloudy
3:14 AM15 °C14.4 °C96 %1022 hPa12.9 kmCalmOvercast
3:52 AM15.6 °C14.4 °C93 %1022.4 hPa14.5 kmCalmOvercast
4:52 AM15.6 °C15 °C96 %1022 hPa14.5 kmCalmOvercast
5:52 AM16.1 °C15.6 °C97 %1022.4 hPa12.9 kmCalmOvercast
6:52 AM16.7 °C15.6 °C93 %1022.7 hPa11.3 kmCalmOvercast
8:12 AM20.6 °C17.8 °C84 %1023.4 hPa16.1 kmSSW (210°)5.6 km/hMostly Cloudy
8:19 AM21.1 °C17.8 °C81 %1023.4 hPa16.1 kmSouth (180°)7.4 km/hScattered Clouds
8:52 AM21.7 °C17.8 °C78 %1023.4 hPa16.1 kmSouth (190°)16.7 km/hPartly Cloudy
9:52 AM23.3 °C17.8 °C71 %1023.4 hPa16.1 kmWSW (240°)5.6 km/hPartly Cloudy
10:52 AM25 °C17.8 °C64 %1023 hPa16.1 kmSSE (160°)7.4 km/hClear
11:52 AM26.7 °C17.8 °C58 %1023 hPa16.1 kmSouth (180°)14.8 km/hMostly Cloudy
12:52 PM27.2 °C17.2 °C54 %1022.7 hPa16.1 kmSouth (180°)14.8 km/hMostly Cloudy
1:52 PM26.1 °C17.8 °C60 %1022.4 hPa16.1 kmSouth (190°)13 km/hOvercast
2:02 PM27.2 °C17.8 °C56 %1022.7 hPa16.1 kmSSW (210°)14.8 km/hThunderstormMostly Cloudy
2:35 PM23.3 °C16.1 °C64 %1023 hPa16.1 kmENE (60°)14.8 km/hOvercast
2:52 PM23.3 °C16.1 °C64 %1023 hPa16.1 kmNE (40°)9.3 km/hOvercast
3:52 PM25 °C17.8 °C64 %1022.4 hPa16.1 kmCalm0.25 mmClear
4:52 PM27.2 °C17.2 °C54 %1021.7 hPa16.1 kmCalmClear
5:52 PM26.1 °C18.9 °C64 %1022 hPa16.1 kmSouth (180°)13 km/hMostly Cloudy
6:52 PM24.4 °C17.8 °C67 %1022.7 hPa16.1 kmSouth (190°)24.1 km/h35.2 km/hScattered Clouds
7:52 PM23.3 °C18.9 °C76 %1023 hPa16.1 kmSouth (180°)13 km/hPartly Cloudy
8:35 PM22.8 °C19.4 °C81 %1023.4 hPa16.1 kmSSW (200°)7.4 km/hMostly Cloudy
8:52 PM22.2 °C19.4 °C84 %1023.4 hPa16.1 kmSSW (210°)7.4 km/hOvercast
9:24 PM22.2 °C18.9 °C81 %1023.4 hPa16.1 kmSW (230°)11.1 km/hMostly Cloudy
10:52 PM20.6 °C17.8 °C84 %1023.7 hPa16.1 kmSSW (210°)5.6 km/hMostly Cloudy
11:52 PM20 °C18.3 °C90 %1023.7 hPa16.1 kmCalmOvercast
Hourly data recorded from KORE, located 0 kilometers away from Greenfield, Massachusetts







STORIES FROM OUR PARTNERS